Home   Weather   Kingston   Past weeks
Flag for Canada

Past Weather in Kingston, Ontario, Canada — Yesterday and Last 2 Weeks

Now
28 °F

Passing clouds.


Feels Like: 22 °F
Forecast: 42 / 25 °F
Wind: 6 mph from Southeast

Location: Kingston

Current Time: Mar 20, 2019 at 1:58:35 am

Latest Report: Mar 19, 2019 at 11:00 pm


Visibility: 15 mi

Pressure: 30.36 "Hg

Humidity: 93%

Dew Point: 27 °F

Location of KingstonLocation

Past Weather in Kingston — Graph

°F

Kingston Temperature Yesterday

Maximum temperature yesterday: 36 °F (at 4:00 pm)
Minimum temperature yesterday: 16 °F (at 7:00 am)
Average temperature yesterday: 28 °F

High & Low Weather Summary for the Past Weeks

 TemperatureHumidityPressure
High50 °F (Mar 14, 4:00 pm)100% (Mar 10, 2:00 pm)30.43 "Hg (Mar 10, 2:00 pm)
Low1 °F (Mar 6, 6:00 am)35% (Mar 6, 4:00 pm)29.57 "Hg (Mar 15, 6:32 am)
Average28 °F72%30.09 "Hg
* Reported Mar 4 10:00 pm — Mar 19 11:00 pm, Kingston. Weather by CustomWeather, © 2019

Note: Actual official high and low records may vary slightly from our data, if they occured in-between our weather recording intervals... More about our weather records

Advertising

Kingston Weather History for the Previous 24 Hours

Scroll right to see more
 ConditionsComfort  
Time TempWeatherWind HumidityBarometerVisibility
11:00 pm
Tue, Mar 19
28 °FPassing clouds.6 mph93%30.36 "Hg15 mi
10:00 pm28 °FPassing clouds.6 mph100%30.37 "Hg15 mi
9:00 pm28 °FPassing clouds.6 mph100%30.37 "Hg15 mi
8:00 pm28 °FPassing clouds.6 mph100%30.37 "Hg15 mi
7:00 pm30 °FScattered clouds.6 mph93%30.37 "Hg15 mi
6:00 pm32 °FScattered showers. Partly sunny.7 mph87%30.38 "Hg15 mi
5:00 pm34 °FScattered showers. Partly sunny.12 mph87%30.39 "Hg15 mi
4:00 pm36 °FScattered showers. Scattered clouds.10 mph87%30.40 "Hg15 mi
3:00 pm34 °FPassing clouds.15 mph81%30.41 "Hg15 mi
2:00 pm34 °FPassing clouds.13 mph70%30.42 "Hg15 mi
1:00 pm32 °FPassing clouds.13 mph75%30.43 "Hg15 mi
12:00 pm30 °FScattered clouds.7 mph69%30.43 "Hg15 mi
11:00 am30 °FScattered clouds.5 mph47%30.43 "Hg15 mi
10:00 am28 °FScattered clouds.2 mph55%30.42 "Hg15 mi
9:00 am25 °FPassing clouds.No wind69%30.41 "Hg15 mi
8:00 am18 °FPassing clouds.3 mph86%30.40 "Hg15 mi
7:00 am16 °FPassing clouds.6 mph86%30.39 "Hg15 mi
6:00 am18 °FPassing clouds.7 mph73%30.38 "Hg15 mi
Weather by CustomWeather, © 2019

See weather overview